GW3562 Weather Reports


time (UTC)temp
F
wind
direction
speed
knots
gust
knots
rain 1hr
in
rain 24hr
in
rain mn
in
humidity
%
barometer
mb
20260509132629 55 275 0.0 4.3 0.00 0.00 0.00 45 1014.9
20260509132125 54 25 0.9 7.0 0.00 0.00 0.00 44 1015.0
20260509131633 54 275 1.7 7.0 0.00 0.00 0.00 45 1015.1
20260509131528 54 282 0.0 2.6 0.00 0.00 0.00 44 1015.7
20260509131132 54 127 0.0 2.6 0.00 0.00 0.00 47 1015.1
20260509130655 53 277 0.0 3.5 0.00 0.00 0.00 48 1015.1
20260509130123 53 224 0.9 3.5 0.00 0.00 0.00 51 1015.2
20260509130036 52 294 0.0 3.5 0.00 0.00 0.00 51 1016.0
20260509125623 52 146 0.9 2.6 0.00 0.00 0.00 51 1015.1
20260509125132 50 259 0.0 3.5 0.00 0.00 0.00 56 1015.2
20260509124520 48 251 0.0 4.3 0.00 0.00 0.00 64 1016.1
20260509124145 47 221 0.0 3.5 0.00 0.00 0.00 68 1015.3
20260509123627 46 242 0.0 3.5 0.00 0.00 0.00 71 1015.3
20260509123130 44 147 0.9 3.5 0.00 0.00 0.00 76 1015.4
20260509123100 43 253 0.0 3.5 0.00 0.00 0.00 78 1016.3
20260509122643 43 351 0.0 0.0 0.00 0.00 0.00 80 1015.5
20260509122119 42 351 0.0 0.0 0.00 0.00 0.00 81 1015.5
20260509121638 41 351 0.0 0.0 0.00 0.00 0.00 83 1015.5
20260509121543 40 351 0.0 0.0 0.00 0.00 0.00 83 1016.4
20260509121152 40 351 0.0 0.0 0.00 0.00 0.00 84 1015.4
20260509120641 39 351 0.0 0.0 0.00 0.00 0.00 86 1015.5
20260509120139 39 351 0.0 0.0 0.00 0.00 0.00 88 1015.6
20260509120032 38 351 0.0 0.0 0.00 0.00 0.00 88 1016.4
20260509115656 38 351 0.0 0.0 0.00 0.00 0.00 88 1015.6
20260509115158 37 351 0.0 0.0 0.00 0.00 0.00 89 1015.7
20260509114657 36 351 0.0 0.0 0.00 0.00 0.00 90 1015.7
20260509114606 36 351 0.0 0.0 0.00 0.00 0.00 90 1016.5
20260509114142 35 351 0.0 0.0 0.00 0.00 0.00 91 1015.7
20260509113705 35 351 0.0 0.0 0.00 0.00 0.00 91 1015.6
20260509113129 35 351 0.0 0.0 0.00 0.00 0.00 91 1015.7
20260509113024 34 351 0.0 0.0 0.00 0.00 0.00 91 1016.5
20260509112639 34 351 0.0 0.0 0.00 0.00 0.00 91 1015.7
20260509112156 34 351 0.0 0.0 0.00 0.00 0.00 91 1015.5
20260509111703 34 351 0.0 0.0 0.00 0.00 0.00 91 1015.5
20260509111512 33 351 0.0 0.0 0.00 0.00 0.00 91 1016.3
20260509111152 33 351 0.0 0.0 0.00 0.00 0.00 92 1015.5
20260509110646 33 351 0.0 0.0 0.00 0.00 0.00 92 1015.5
20260509110224 33 351 0.0 0.0 0.00 0.00 0.00 92 1015.5
20260509110000 32 351 0.0 0.0 0.00 0.00 0.00 92 1016.3
20260509105720 33 351 0.0 0.0 0.00 0.00 0.00 92 1015.5
20260509105148 32 351 0.0 0.0 0.00 0.00 0.00 92 1015.6
20260509104646 32 351 0.0 0.0 0.00 0.00 0.00 92 1015.6
20260509104536 32 351 0.0 0.0 0.00 0.00 0.00 92 1016.5
20260509104151 32 351 0.0 0.0 0.00 0.00 0.00 92 1015.6
20260509103642 32 351 0.0 0.0 0.00 0.00 0.00 92 1015.6
20260509103218 32 351 0.0 0.0 0.00 0.00 0.00 92 1015.6
20260509103008 31 351 0.0 0.0 0.00 0.00 0.00 92 1016.4
20260509102657 31 351 0.0 0.0 0.00 0.00 0.00 92 1015.4
20260509102159 31 351 0.0 0.0 0.00 0.00 0.00 91 1015.4
20260509101729 31 351 0.0 0.0 0.00 0.00 0.00 91 1015.3
20260509101512 31 351 0.0 0.0 0.00 0.00 0.00 91 1016.1
20260509101221 31 351 0.0 0.0 0.00 0.00 0.00 91 1015.3
20260509100652 31 351 0.0 0.0 0.00 0.00 0.00 90 1015.4
20260509100147 31 351 0.0 0.0 0.00 0.00 0.00 90 1015.4
20260509100043 31 351 0.0 0.0 0.00 0.00 0.00 90 1016.2
20260509095644 32 351 0.0 0.0 0.00 0.00 0.00 90 1015.4
20260509095150 32 351 0.0 0.0 0.00 0.00 0.00 90 1015.4
20260509094708 32 351 0.0 0.0 0.00 0.00 0.00 90 1015.2
20260509094557 31 351 0.0 0.0 0.00 0.00 0.00 90 1016.1
20260509094227 32 351 0.0 0.0 0.00 0.00 0.00 90 1015.2
20260509093651 32 351 0.0 0.0 0.00 0.00 0.00 90 1015.2
20260509093155 32 351 0.0 0.0 0.00 0.00 0.00 90 1015.1
20260509092656 32 351 0.0 0.0 0.00 0.00 0.00 90 1015.1
20260509092136 32 351 0.0 0.0 0.00 0.00 0.00 90 1015.0
20260509091643 32 351 0.0 0.0 0.00 0.00 0.00 90 1015.0
20260509091556 31 351 0.0 0.0 0.00 0.00 0.00 90 1015.8
20260509091158 32 351 0.0 0.0 0.00 0.00 0.00 90 1015.0
20260509090658 32 351 0.0 0.0 0.00 0.00 0.00 91 1014.9
20260509090138 32 351 0.0 0.0 0.00 0.00 0.00 91 1015.0
20260509090035 31 351 0.0 0.0 0.00 0.00 0.00 91 1015.8
20260509085701 32 351 0.0 0.0 0.00 0.00 0.00 91 1015.0
20260509085142 32 351 0.0 0.0 0.00 0.00 0.00 91 1014.9
20260509084647 31 351 0.0 0.0 0.00 0.00 0.00 91 1014.9
20260509084524 31 351 0.0 0.0 0.00 0.00 0.00 90 1015.7
20260509084145 31 351 0.0 0.0 0.00 0.00 0.00 90 1014.8
20260509083706 31 351 0.0 0.0 0.00 0.00 0.00 90 1014.8
20260509083142 32 351 0.0 0.0 0.00 0.00 0.00 90 1014.8
20260509083046 31 351 0.0 0.0 0.00 0.00 0.00 90 1015.6
20260509082658 32 351 0.0 0.0 0.00 0.00 0.00 90 1014.9
20260509082146 32 351 0.0 0.0 0.00 0.00 0.00 90 1014.9
20260509081710 32 351 0.0 0.0 0.00 0.00 0.00 90 1015.0
20260509081539 31 351 0.0 0.0 0.00 0.00 0.00 90 1015.8
20260509081156 32 351 0.0 0.0 0.00 0.00 0.00 89 1015.0
20260509080718 32 351 0.0 0.0 0.00 0.00 0.00 89 1015.0
20260509080151 32 351 0.0 0.0 0.00 0.00 0.00 89 1015.0
20260509080101 31 351 0.0 0.0 0.00 0.00 0.00 89 1015.8
20260509075638 32 351 0.0 0.0 0.00 0.00 0.00 89 1015.1
20260509075157 32 351 0.0 0.0 0.00 0.00 0.00 89 1015.1
20260509074656 32 351 0.0 0.0 0.00 0.00 0.00 89 1015.1
20260509074539 32 351 0.0 0.0 0.00 0.00 0.00 88 1015.9
20260509074153 32 351 0.0 0.0 0.00 0.00 0.00 88 1015.1
20260509073653 32 351 0.0 0.0 0.00 0.00 0.00 88 1015.1
20260509073156 32 351 0.0 0.0 0.00 0.00 0.00 88 1015.1
20260509073101 32 351 0.0 0.0 0.00 0.00 0.00 88 1016.0
20260509072633 32 351 0.0 0.0 0.00 0.00 0.00 88 1015.2
20260509072143 32 351 0.0 0.0 0.00 0.00 0.00 88 1015.2
20260509071656 32 351 0.0 0.0 0.00 0.00 0.00 88 1015.2
20260509071559 32 351 0.0 0.0 0.00 0.00 0.00 88 1016.1
20260509071141 32 351 0.0 0.0 0.00 0.00 0.00 88 1015.2
20260509070654 32 351 0.0 0.0 0.00 0.00 0.00 87 1015.2
20260509070200 33 351 0.0 0.0 0.00 0.00 0.00 87 1015.2
20260509070004 32 351 0.0 0.0 0.00 0.00 0.00 87 1016.1
20260509065646 33 351 0.0 0.0 0.00 0.00 0.00 87 1015.2
20260509065157 33 351 0.0 0.0 0.00 0.00 0.00 87 1015.2
20260509064721 33 351 0.0 0.0 0.00 0.00 0.00 86 1015.3
20260509064511 32 351 0.0 0.0 0.00 0.00 0.00 86 1016.0
20260509064157 33 351 0.0 0.0 0.00 0.00 0.00 86 1015.2
20260509063656 33 351 0.0 0.0 0.00 0.00 0.00 86 1015.2
20260509063157 33 351 0.0 0.0 0.00 0.00 0.00 85 1015.2
20260509063003 33 351 0.0 0.0 0.00 0.00 0.00 85 1016.0
20260509062644 33 351 0.0 0.0 0.00 0.00 0.00 85 1015.2
20260509062224 33 351 0.0 0.0 0.00 0.00 0.00 85 1015.2
20260509061648 33 351 0.0 0.0 0.00 0.00 0.00 84 1015.2
20260509061519 33 351 0.0 0.0 0.00 0.00 0.00 84 1016.0
20260509061140 33 351 0.0 0.0 0.00 0.00 0.00 85 1015.3
20260509060701 34 351 0.0 0.0 0.00 0.00 0.00 85 1015.3
20260509060145 34 351 0.0 0.0 0.00 0.00 0.00 85 1015.4
20260509060024 33 351 0.0 0.0 0.00 0.00 0.00 85 1016.2
20260509055649 34 351 0.0 0.0 0.00 0.00 0.00 84 1015.4
20260509055143 34 351 0.0 0.0 0.00 0.00 0.00 83 1015.4
20260509054647 34 351 0.0 0.0 0.00 0.00 0.00 83 1015.4
20260509054529 34 351 0.0 0.0 0.00 0.00 0.00 83 1016.2
20260509054148 34 351 0.0 0.0 0.00 0.00 0.00 82 1015.4
20260509053717 35 351 0.0 0.0 0.00 0.00 0.00 82 1015.4
20260509053146 35 351 0.0 0.0 0.00 0.00 0.00 82 1015.3
20260509053036 34 351 0.0 0.0 0.00 0.00 0.00 82 1016.1
20260509052710 35 351 0.0 0.0 0.00 0.00 0.00 81 1015.3
20260509052140 35 351 0.0 0.0 0.00 0.00 0.00 81 1015.3
20260509051650 35 351 0.0 0.0 0.00 0.00 0.00 81 1015.2
20260509051534 35 351 0.0 0.0 0.00 0.00 0.00 81 1016.0
20260509051208 35 351 0.0 0.0 0.00 0.00 0.00 79 1015.3
20260509050640 36 351 0.0 0.0 0.00 0.00 0.00 79 1015.2
20260509050200 36 351 0.0 0.0 0.00 0.00 0.00 79 1015.2
20260509050105 35 351 0.0 0.0 0.00 0.00 0.00 79 1016.0
20260509045651 36 351 0.0 0.0 0.00 0.00 0.00 79 1015.2
20260509045203 36 351 0.0 0.0 0.00 0.00 0.00 78 1015.2
20260509044636 36 351 0.0 0.0 0.00 0.00 0.00 78 1015.2
20260509044528 36 351 0.0 0.0 0.00 0.00 0.00 78 1016.0
20260509044211 36 351 0.0 0.0 0.00 0.00 0.00 78 1015.2
20260509043711 37 351 0.0 0.0 0.00 0.00 0.00 77 1015.2
20260509043157 37 351 0.0 0.0 0.00 0.00 0.00 77 1015.2
20260509043054 36 351 0.0 0.0 0.00 0.00 0.00 77 1015.9
20260509042711 37 351 0.0 0.0 0.00 0.00 0.00 76 1015.2
20260509042129 37 351 0.0 0.0 0.00 0.00 0.00 76 1015.2
20260509041643 37 351 0.0 0.0 0.00 0.00 0.00 75 1015.2
20260509041528 37 351 0.0 0.0 0.00 0.00 0.00 75 1015.9
20260509041144 38 351 0.0 0.0 0.00 0.00 0.00 74 1015.1
20260509040637 38 351 0.0 0.0 0.00 0.00 0.00 73 1015.2
20260509040216 38 351 0.0 0.0 0.00 0.00 0.00 73 1015.1
20260509040100 37 351 0.0 0.0 0.00 0.00 0.00 73 1015.8
20260509035639 38 351 0.0 0.0 0.00 0.00 0.00 73 1015.1
20260509035157 38 351 0.0 0.0 0.00 0.00 0.00 73 1015.0
20260509034639 38 351 0.0 0.0 0.00 0.00 0.00 73 1015.0
20260509034542 38 351 0.0 0.0 0.00 0.00 0.00 73 1015.7
20260509034153 38 351 0.0 0.0 0.00 0.00 0.00 73 1015.0
20260509033655 39 351 0.0 0.0 0.00 0.00 0.00 74 1015.0
20260509033139 39 351 0.0 0.0 0.00 0.00 0.00 73 1015.0
20260509033018 38 351 0.0 0.0 0.00 0.00 0.00 73 1015.7
20260509032659 39 351 0.0 0.0 0.00 0.00 0.00 72 1015.0
20260509032143 39 351 0.0 0.0 0.00 0.00 0.00 72 1014.9
20260509031647 39 351 0.0 0.0 0.00 0.00 0.00 71 1014.8
20260509031522 39 351 0.0 0.0 0.00 0.00 0.00 71 1015.6
20260509031155 40 351 0.0 0.0 0.00 0.00 0.00 71 1014.8
20260509030645 40 351 0.0 0.0 0.00 0.00 0.00 70 1014.8
20260509030137 40 351 0.0 0.0 0.00 0.00 0.00 69 1014.7
20260509030055 39 351 0.0 0.0 0.00 0.00 0.00 69 1015.4
20260509025643 40 351 0.0 0.0 0.00 0.00 0.00 69 1014.7
20260509025148 40 351 0.0 0.0 0.00 0.00 0.00 69 1014.7
20260509024635 41 351 0.0 0.0 0.00 0.00 0.00 68 1014.7
20260509024539 40 351 0.0 0.0 0.00 0.00 0.00 68 1015.4
20260509024204 41 351 0.0 0.0 0.00 0.00 0.00 65 1014.7
20260509023700 41 351 0.0 0.0 0.00 0.00 0.00 64 1014.7
20260509023149 41 351 0.0 0.0 0.00 0.00 0.00 66 1014.6
20260509023030 41 351 0.0 0.0 0.00 0.00 0.00 66 1015.3
20260509022640 41 351 0.0 0.0 0.00 0.00 0.00 66 1014.6
20260509022138 42 351 0.0 0.0 0.00 0.00 0.00 66 1014.6
20260509021636 42 351 0.0 0.0 0.00 0.00 0.00 65 1014.6
20260509021130 42 351 0.0 0.0 0.00 0.00 0.00 64 1014.6
20260509020624 42 351 0.0 0.0 0.00 0.00 0.00 65 1014.6
20260509020142 42 351 0.0 0.0 0.00 0.00 0.00 64 1014.5
20260509020040 42 351 0.0 0.0 0.00 0.00 0.00 64 1015.2
20260509015624 42 351 0.0 0.0 0.00 0.00 0.00 63 1014.4
20260509015123 43 351 0.0 0.0 0.00 0.00 0.00 64 1014.4
20260509014641 43 351 0.0 0.0 0.00 0.00 0.00 65 1014.3
20260509014541 43 351 0.0 0.0 0.00 0.00 0.00 66 1015.1
20260509014129 43 351 0.0 0.0 0.00 0.00 0.00 66 1014.2
20260509013630 43 351 0.0 0.0 0.00 0.00 0.00 64 1014.2
20260509013130 44 351 0.0 0.0 0.00 0.00 0.00 64 1014.2
20260509013042 43 351 0.0 0.0 0.00 0.00 0.00 66 1014.9
20260509012141 44 351 0.0 0.0 0.00 0.00 0.00 63 1014.1
20260509011619 44 351 0.0 0.0 0.00 0.00 0.00 63 1014.0
20260509011515 44 351 0.0 0.0 0.00 0.00 0.00 65 1014.7
20260509011131 44 351 0.0 0.0 0.00 0.00 0.00 64 1014.0
20260509010627 45 351 0.0 0.0 0.00 0.00 0.00 65 1013.9
20260509010130 45 351 0.0 0.0 0.00 0.00 0.00 63 1013.8
20260509010044 44 351 0.0 0.0 0.00 0.00 0.00 62 1014.5
20260509005607 45 351 0.0 0.0 0.00 0.00 0.00 63 1013.7
20260509005125 45 351 0.0 0.0 0.00 0.00 0.00 63 1013.7
20260509004610 46 351 0.0 0.0 0.00 0.00 0.00 61 1013.5
20260509004544 45 351 0.0 0.0 0.00 0.00 0.00 61 1014.3
20260509004156 46 351 0.0 0.0 0.00 0.00 0.00 61 1013.5
20260509003629 46 351 0.0 0.0 0.00 0.00 0.00 59 1013.4
20260509003132 47 351 0.0 0.0 0.00 0.00 0.00 59 1013.3
20260509003029 46 351 0.0 0.0 0.00 0.00 0.00 59 1014.0
20260509002643 47 351 0.0 0.0 0.00 0.00 0.00 56 1013.3
20260509002148 47 351 0.0 0.0 0.00 0.00 0.00 55 1013.2
20260509001638 47 351 0.0 0.0 0.00 0.00 0.00 55 1013.3
20260509001608 47 351 0.0 0.0 0.00 0.00 0.00 55 1014.0
20260509001217 48 351 0.0 0.0 0.00 0.00 0.00 53 1013.2
20260509000626 48 351 0.0 0.0 0.00 0.00 0.00 55 1013.1
20260509000128 48 351 0.0 0.0 0.00 0.00 0.00 56 1013.2
20260509000049 48 351 0.0 0.0 0.00 0.00 0.00 56 1013.9
20260508235619 49 351 0.0 0.0 0.00 0.00 0.00 55 1013.1
20260508235126 49 351 0.0 0.0 0.00 0.00 0.00 55 1013.1
20260508234629 49 351 0.0 0.0 0.00 0.00 0.00 55 1012.9
20260508234528 48 351 0.0 0.0 0.00 0.00 0.00 55 1013.7
20260508234142 49 351 0.0 0.0 0.00 0.00 0.00 53 1012.9
20260508233617 49 351 0.0 0.0 0.00 0.00 0.00 54 1012.9
20260508233117 50 351 0.0 0.0 0.00 0.00 0.00 50 1012.9
20260508233033 49 351 0.0 0.0 0.00 0.00 0.00 50 1013.6
20260508232619 50 351 0.0 0.0 0.00 0.00 0.00 51 1012.8
20260508232124 50 351 0.0 0.0 0.00 0.00 0.00 49 1012.8
20260508231627 50 351 0.0 0.0 0.00 0.00 0.00 47 1012.8
20260508231559 49 351 0.0 0.0 0.00 0.00 0.00 47 1013.6
20260508231132 50 351 0.0 0.0 0.00 0.00 0.00 46 1012.7
20260508230620 50 351 0.0 0.0 0.00 0.00 0.00 46 1012.7
20260508230145 50 351 0.0 0.0 0.00 0.00 0.00 47 1012.7
20260508230028 50 351 0.0 0.0 0.00 0.00 0.00 46 1013.4
20260508225625 50 351 0.0 0.0 0.00 0.00 0.00 45 1012.6
20260508225133 50 349 0.0 0.0 0.00 0.00 0.00 45 1012.6
20260508224630 51 349 0.0 0.0 0.00 0.00 0.00 48 1012.7
20260508224542 50 349 0.0 0.0 0.00 0.00 0.00 49 1013.4
20260508224126 50 349 0.0 0.0 0.00 0.00 0.00 44 1012.7
20260508223623 50 349 0.0 0.0 0.00 0.00 0.00 43 1012.7
20260508223123 51 349 0.0 4.3 0.00 0.00 0.00 43 1012.7
20260508223033 50 344 0.0 4.3 0.00 0.00 0.00 43 1013.4
20260508222616 51 349 0.9 3.5 0.00 0.00 0.00 43 1012.8
20260508222133 51 346 0.9 2.6 0.00 0.00 0.00 42 1012.8
20260508221647 51 346 0.0 0.0 0.00 0.00 0.00 43 1012.7
20260508221522 50 346 0.0 0.0 0.00 0.00 0.00 44 1013.4
20260508221127 51 346 0.0 4.3 0.00 0.00 0.00 42 1012.7
20260508220629 51 346 0.9 4.3 0.00 0.00 0.00 44 1012.7
20260508220014 50 344 0.0 4.3 0.00 0.00 0.00 44 1013.3
20260508215640 51 344 1.7 4.3 0.00 0.00 0.00 44 1012.6
20260508215120 51 341 0.0 4.3 0.00 0.00 0.00 44 1012.6
20260508214613 51 341 0.9 5.2 0.00 0.00 0.00 42 1012.6
20260508214537 50 341 0.9 5.2 0.00 0.00 0.00 42 1013.3
20260508214121 51 343 0.9 5.2 0.00 0.00 0.00 43 1012.6
20260508213640 51 341 0.9 5.2 0.00 0.00 0.00 43 1012.6
20260508213116 51 334 0.9 5.2 0.00 0.00 0.00 43 1012.7
20260508213028 50 334 0.0 5.2 0.00 0.00 0.00 42 1013.3
20260508212621 51 4 0.0 6.1 0.00 0.00 0.00 44 1012.5
20260508212132 51 350 1.7 6.1 0.00 0.00 0.00 41 1012.6
20260508211629 51 337 0.9 6.1 0.00 0.00 0.00 44 1012.5
20260508210620 51 358 2.6 7.0 0.00 0.00 0.00 42 1012.5
20260508210135 51 348 0.0 5.2 0.00 0.00 0.00 42 1012.4
20260508210001 51 65 0.0 5.2 0.00 0.00 0.00 41 1013.1
20260508205633 52 342 0.9 5.2 0.00 0.00 0.00 42 1012.5
20260508205123 52 360 0.9 5.2 0.00 0.00 0.00 43 1012.4
20260508204620 51 346 0.9 4.3 0.00 0.00 0.00 41 1012.4
20260508204126 51 335 0.0 6.1 0.00 0.00 0.00 44 1012.3
20260508203615 51 303 0.0 7.8 0.00 0.00 0.00 42 1012.4
20260508203140 51 353 0.0 7.8 0.00 0.00 0.00 43 1012.4
20260508203058 51 339 0.0 7.8 0.00 0.00 0.00 42 1013.1
20260508202659 51 352 0.9 7.8 0.00 0.00 0.00 45 1012.4
20260508202123 51 341 3.5 7.8 0.00 0.00 0.00 42 1012.4
20260508201631 51 32 0.9 5.2 0.00 0.00 0.00 42 1012.4
20260508201531 51 356 0.0 5.2 0.00 0.00 0.00 42 1013.0
20260508201114 51 351 0.0 2.6 0.00 0.00 0.00 44 1012.3
20260508200619 51 311 0.0 7.0 0.00 0.00 0.00 46 1012.4
20260508200118 51 282 0.0 7.0 0.00 0.00 0.00 46 1012.5
20260508200051 51 277 0.0 7.0 0.00 0.00 0.00 46 1013.2
20260508195623 51 3 0.9 6.1 0.00 0.00 0.00 44 1012.5
20260508195137 51 5 0.9 7.8 0.00 0.00 0.00 43 1012.4
20260508194620 51 351 0.9 7.8 0.00 0.00 0.00 42 1012.4
20260508194532 51 350 1.7 7.8 0.00 0.00 0.00 44 1013.1
20260508194133 51 292 0.0 7.8 0.00 0.00 0.00 43 1012.5
20260508193640 51 346 1.7 7.8 0.00 0.00 0.00 43 1012.6
20260508193135 51 348 0.9 7.0 0.00 0.00 0.00 44 1012.4
20260508193029 51 347 0.0 7.0 0.00 0.00 0.00 44 1013.1
20260508192620 51 350 1.7 7.0 0.00 0.00 0.00 42 1012.4
20260508192201 51 276 0.9 7.0 0.00 0.00 0.00 43 1012.5
20260508191640 51 358 0.9 6.1 0.00 0.00 0.00 42 1012.4
20260508190649 50 351 1.7 7.8 0.00 0.00 0.00 43 1012.5
20260508190150 50 34 0.9 6.1 0.00 0.00 0.00 46 1012.5
20260508190057 50 34 0.9 6.1 0.00 0.00 0.00 47 1013.2
20260508185629 50 12 0.0 6.1 0.00 0.00 0.00 47 1012.6
20260508185132 50 261 0.0 6.1 0.00 0.00 0.00 48 1012.6
20260508184635 50 351 0.0 6.1 0.00 0.00 0.00 49 1012.6
20260508184549 49 352 0.9 6.1 0.00 0.00 0.00 48 1013.3
20260508184117 49 212 0.9 4.3 0.00 0.00 0.00 49 1012.7
20260508183620 49 34 0.0 4.3 0.00 0.00 0.00 51 1012.7
20260508183155 49 18 0.9 4.3 0.00 0.00 0.00 49 1012.8
20260508183054 48 18 0.9 4.3 0.00 0.00 0.00 49 1013.5
20260508182638 49 289 0.0 3.5 0.00 0.00 0.00 50 1012.7
20260508182129 49 319 0.9 5.2 0.00 0.00 0.00 53 1012.8
20260508181614 49 351 0.0 7.0 0.00 0.00 0.00 50 1012.8
20260508181114 49 353 1.7 7.0 0.00 0.00 0.00 51 1012.8
20260508180620 48 39 0.0 0.0 0.00 0.00 0.00 52 1012.8
20260508180130 48 336 0.0 5.2 0.00 0.00 0.00 51 1012.9
20260508180018 48 336 0.0 7.0 0.00 0.00 0.00 51 1013.6
20260508175649 48 287 0.9 7.0 0.00 0.00 0.00 52 1012.9
20260508175145 48 351 0.0 5.2 0.00 0.00 0.00 52 1012.8
20260508174639 48 349 0.9 5.2 0.00 0.00 0.00 51 1012.8
20260508174512 48 349 0.9 5.2 0.00 0.00 0.00 52 1013.5
20260508174132 48 352 1.7 5.2 0.00 0.00 0.00 50 1012.8
20260508173642 48 12 0.0 5.2 0.00 0.00 0.00 52 1012.9
20260508173143 48 5 0.9 5.2 0.00 0.00 0.00 51 1012.9
20260508173102 48 5 0.9 5.2 0.00 0.00 0.00 51 1013.6
20260508172629 48 301 0.0 4.3 0.00 0.00 0.00 53 1012.9
20260508172129 48 339 0.9 6.1 0.00 0.00 0.00 51 1012.9
20260508171639 48 349 1.7 6.1 0.00 0.00 0.00 52 1012.9
20260508171522 48 349 0.9 6.1 0.00 0.00 0.00 51 1013.6
20260508171121 48 33 0.0 0.9 0.00 0.00 0.00 54 1012.9
20260508170659 48 35 0.0 4.3 0.00 0.00 0.00 52 1012.9
20260508170120 48 34 0.0 4.3 0.00 0.00 0.00 51 1012.8
20260508170059 47 34 0.0 5.2 0.00 0.00 0.00 51 1013.5
20260508165623 47 356 0.0 6.1 0.00 0.00 0.00 52 1012.9
20260508165137 47 348 0.9 6.1 0.00 0.00 0.00 52 1012.9
20260508164618 47 351 0.0 1.7 0.00 0.00 0.00 53 1012.9
20260508164546 47 351 0.0 1.7 0.00 0.00 0.00 53 1013.6
20260508164119 47 349 0.0 0.9 0.00 0.00 0.00 54 1012.8
20260508163650 47 349 0.0 0.0 0.00 0.00 0.00 56 1012.8
20260508163129 47 349 0.0 3.5 0.00 0.00 0.00 54 1012.9
20260508163053 46 349 0.0 3.5 0.00 0.00 0.00 54 1013.6
20260508162620 47 351 0.0 5.2 0.00 0.00 0.00 54 1013.0
20260508161631 47 357 1.7 6.1 0.00 0.00 0.00 53 1012.8
20260508161525 47 357 0.0 4.3 0.00 0.00 0.00 53 1013.6
20260508161118 47 337 0.0 7.0 0.00 0.00 0.00 53 1012.9
20260508160648 47 347 0.9 7.0 0.00 0.00 0.00 52 1012.9
20260508160121 48 341 1.7 10.4 0.00 0.00 0.00 52 1012.9
20260508160043 47 5 0.9 10.4 0.00 0.00 0.00 53 1013.6
20260508155623 48 354 2.6 10.4 0.00 0.00 0.00 52 1012.9
20260508155142 49 291 0.0 4.3 0.00 0.00 0.00 54 1012.8
20260508154619 49 358 0.0 4.3 0.00 0.00 0.00 55 1012.8
20260508154510 48 360 0.0 4.3 0.00 0.00 0.00 55 1013.3
20260508154140 49 3 0.9 6.1 0.00 0.00 0.00 54 1012.6
20260508153636 49 339 0.9 8.7 0.00 0.00 0.00 54 1012.7
20260508153136 49 340 1.7 8.7 0.00 0.00 0.00 56 1012.7
20260508153102 48 344 1.7 8.7 0.00 0.00 0.00 53 1013.3
20260508152622 49 328 1.7 7.0 0.00 0.00 0.00 52 1012.8
20260508152128 49 3 1.7 11.3 0.00 0.00 0.00 52 1012.6
20260508151615 49 15 0.9 11.3 0.00 0.00 0.00 53 1012.6
20260508151541 49 303 1.7 11.3 0.00 0.00 0.00 56 1013.3
20260508151131 49 360 0.9 5.2 0.00 0.00 0.00 55 1012.6
20260508150644 48 352 0.0 8.7 0.00 0.00 0.00 58 1012.5
20260508150118 48 344 2.6 8.7 0.00 0.00 0.00 55 1012.6
20260508150033 47 356 1.7 7.0 0.00 0.00 0.00 55 1013.3
20260508145127 47 346 6.1 8.7 0.00 0.00 0.00 56 1012.8
20260508144628 47 118 0.0 6.1 0.00 0.00 0.00 57 1012.8
20260508144524 46 115 0.0 6.1 0.00 0.00 0.00 57 1013.4
20260508144125 46 93 0.0 4.3 0.00 0.00 0.00 61 1012.8
20260508143628 46 348 0.0 6.1 0.00 0.00 0.00 61 1012.9
20260508143122 46 350 3.5 6.1 0.00 0.00 0.00 62 1012.9
20260508143059 45 18 2.6 6.1 0.00 0.00 0.00 62 1013.5
20260508142617 45 211 0.0 3.5 0.00 0.00 0.00 65 1012.9
20260508142131 45 211 0.0 4.3 0.00 0.00 0.00 63 1013.0
20260508141618 45 341 0.9 4.3 0.00 0.00 0.00 63 1013.0
20260508141537 44 341 0.0 4.3 0.00 0.00 0.00 63 1013.6
20260508141144 44 341 0.0 4.3 0.00 0.00 0.00 64 1013.0
20260508140616 44 341 0.9 4.3 0.00 0.00 0.00 63 1013.1
20260508140158 44 332 0.0 2.6 0.00 0.00 0.00 66 1013.1
20260508140116 44 335 0.0 2.6 0.00 0.00 0.00 66 1013.7
20260508135619 44 337 0.0 4.3 0.00 0.00 0.00 65 1013.1
20260508135138 44 337 0.0 4.3 0.00 0.00 0.00 67 1013.0
20260508134621 44 343 0.9 3.5 0.00 0.00 0.00 67 1013.1
20260508134552 43 343 0.9 3.5 0.00 0.00 0.00 68 1013.7
20260508134119 44 342 0.0 0.0 0.00 0.00 0.00 68 1013.1
20260508133616 44 343 0.0 5.2 0.00 0.00 0.00 69 1013.1
20260508133036 43 346 0.0 6.1 0.00 0.00 0.00 69 1013.7